#timestamp,LO_Frequency,Hit,StdDev 
1580281215.8,286047000.2,N
1580281235.6,286047002.6,N
1580281255.4,286046999.7,N
1580281275.3,286047002.4,N
1580281295.1,286046999.8,N
1580281315.9,286047003.5,N
1580281335.7,286047002.4,N
1580281355.5,286047002.6,N
1580281375.4,286047001.8,N
1580281395.2,286047002.3,N
1580281415.0,286047002.0,N
1580281416.0,286047002.0,N
1580281435.8,286047003.9,N
1580281455.6,286047003.6,N
1580281475.5,286047002.6,N
1580281495.3,286046999.8,N
1580281515.1,286047003.9,N
1580281535.9,286047004.2,N
1580281555.7,286047004.4,N
1580281575.6,286047001.3,N
1580281595.4,286047004.3,N
1580281615.2,286047003.7,N
1580281635.1,286046999.8,N
1580281636.0,286046999.8,N
1580281655.8,286046998.2,N
1580281675.7,286046999.6,N
1580281695.5,286046999.1,N
1580281715.3,286047001.1,N
1580281735.2,286047002.5,N
1580281755.0,286047002.7,N
1580281755.9,286047002.7,N
1580281775.8,286047002.8,N
1580281795.6,286047000.1,N
1580281815.4,286047000.2,N
1580281835.3,286046998.4,N
1580281855.1,286046998.2,N
1580281875.9,286047001.1,N
1580281895.7,286047000.9,N
1580281915.5,286047001.2,N
1580281935.4,286046999.8,N
1580281955.2,286047004.0,N
1580281975.0,286047001.6,N
1580281975.9,286047001.6,N
1580281995.8,286047002.5,N
1580282015.6,286047002.3,N
1580282035.5,286047004.0,N
1580282055.3,286047002.5,N
1580282075.1,286047005.5,N
1580282095.9,286047004.6,N
1580282115.7,286047004.2,N
1580282135.5,286047005.0,N
1580282155.4,286047004.7,N
1580282175.2,286047006.0,N
1580282195.1,286047005.5,N
1580282196.0,286047005.5,N
1580282215.8,286047005.4,N
1580282235.6,286047002.2,N
1580282255.5,286047003.7,N
1580282275.3,286047002.2,N
1580282295.1,286047004.3,N
1580282315.9,286047002.3,N
1580282335.7,286046999.7,N
1580282355.6,286047004.4,N
1580282375.4,286047003.1,N
1580282395.2,286047002.5,N
1580282415.1,286047000.9,N
1580282416.0,286047000.9,N
1580282435.8,286047001.9,N
1580282455.7,286047002.0,N
1580282475.5,286047001.5,N
1580282495.3,286047000.8,N
1580282515.2,286047000.4,N
1580282535.0,286047001.0,N
1580282535.9,286047001.0,N
1580282555.8,286047001.1,N
1580282575.6,286047002.6,N
1580282595.4,286047003.8,N
1580282615.3,286047005.6,Y
1580282635.1,286046998.5,P
1580282655.8,286047000.9,N
1580282675.7,286047002.1,N
1580282695.5,286047001.6,N
1580282715.4,286047001.2,N
1580282735.2,286047000.9,N
1580282755.0,286047000.2,N
1580282755.9,286047000.2,N
1580282775.8,286046998.3,N
1580282795.6,286046997.0,N
1580282815.4,286046999.3,N
1580282835.3,286047002.3,N
1580282855.1,286047001.9,N
1580282875.9,286047000.9,N
1580282895.7,286047000.6,N
1580282915.5,286047000.7,N
1580282935.4,286046999.2,N
1580282955.2,286046999.3,N
1580282975.0,286047000.5,N
1580282975.9,286047000.5,N
1580282995.8,286046999.0,N
1580283015.6,286046996.6,N
1580283035.5,286046999.2,N
1580283055.3,286046997.1,N
1580283075.1,286046999.6,N
1580283095.9,286046997.8,N
1580283115.7,286046997.7,N
1580283135.5,286046995.7,N
1580283155.4,286046994.9,N
1580283175.2,286046995.4,N
1580283195.1,286046995.6,N
1580283196.0,286046995.6,N
1580283215.8,286046996.3,N
1580283235.6,286046995.5,N
1580283255.5,286046996.9,N
1580283275.3,286046999.2,N
1580283295.2,286046998.5,N
1580283315.9,286046998.3,N
1580283335.7,286046999.0,N
1580283355.6,286046996.7,N
1580283375.4,286046995.5,N
1580283395.2,286046995.0,N
1580283415.1,286046996.9,N
1580283416.0,286046996.9,N
1580283435.8,286046999.6,N
1580283455.7,286046999.3,N
1580283475.5,286047000.4,N
1580283495.3,286046998.7,N
1580283515.2,286047001.2,N
1580283535.0,286047002.7,N
1580283535.9,286047002.7,N
1580283555.7,286046999.2,N
1580283575.6,286046996.5,N
1580283595.4,286046996.6,N
1580283615.3,286046999.1,N
1580283635.1,286047001.1,N
1580283636.0,286047001.1,N
1580283655.8,286047004.3,N
1580283675.7,286047001.6,N
1580283695.5,286047001.0,N
1580283715.4,286047000.2,N
1580283765.2,286047001.0,E
1580283775.1,286046999.3,N
1580283795.9,286046998.7,P
1580283815.7,286046999.5,N
1580283835.6,286046999.5,N
1580283855.4,286046997.9,Y
1580283875.2,286046998.9,P
1580283895.1,286046997.2,P
1580283896.0,286046997.2,P
1580283915.8,286046995.6,Y
1580283935.7,286046999.0,P
1580283955.5,286047002.8,P
1580283975.3,286047000.3,N
1580283995.2,286046998.6,N
1580284015.0,286047000.2,N
1580284015.9,286047000.2,N
1580284035.7,286046998.1,N
1580284055.6,286047002.7,N
1580284075.4,286047000.0,N
1580284095.3,286047001.0,N
1580284115.1,286046998.5,N
1580284116.0,286046998.5,N
1580284135.8,286047000.6,N
1580284155.7,286046999.9,N
1580284175.5,286047002.3,N
1580284195.3,286047000.2,N
1580284215.2,286046998.1,N
1580284235.0,286046999.0,N
1580284235.9,286046999.0,N
1580284255.8,286046998.1,N
1580284275.6,286047004.2,N
1580284295.4,286047004.1,N
1580284315.3,286047004.1,N
1580284335.1,286047004.2,N
1580284355.8,286047003.5,N
1580284375.7,286047000.0,N
1580284395.5,286046998.7,N
1580284415.4,286047000.6,N
1580284435.2,286047000.8,N
1580284455.0,286047000.6,N
1580284455.9,286047000.6,N
1580284475.8,286046998.6,N
1580284495.6,286046998.1,N
1580284515.5,286047001.1,N
1580284535.3,286046998.4,N
1580284555.1,286046999.5,N
1580284575.9,286046998.4,N
1580284595.7,286046998.3,N
1580284615.5,286047002.1,N
1580284635.4,286047003.7,N
1580284655.2,286047004.2,N
1580284675.1,286047004.4,N
1580284676.0,286047004.4,N
1580284695.8,286047002.2,N
1580284715.6,286047002.6,N
1580284735.5,286047000.6,N
1580284755.3,286047001.0,N
1580284775.1,286047001.0,N
1580284795.9,286047001.2,N
